| time (UTC) | temp C | wind direction | speed KPH | gust KPH | rain 1hr cm | rain 24hr cm | rain mn cm | humidity % | barometer mb |
| 20260904172220 | 20 | 270 | 3.2 | 6.4 | 0.00 | 0.05 | 0.05 | 84 | 1014.8 |
| 20260904171250 | 20 | 225 | 4.8 | 9.7 | 0.00 | 0.05 | 0.05 | 83 | 1014.7 |
| 20260904170241 | 20 | 248 | 4.8 | 8.0 | 0.00 | 0.05 | 0.05 | 83 | 1014.6 |
| 20260904165241 | 21 | 270 | 6.4 | 11.3 | 0.00 | 0.05 | 0.05 | 83 | 1014.6 |
| 20260904164320 | 21 | 270 | 9.7 | 17.7 | 0.00 | 0.05 | 0.05 | 82 | 1014.3 |
| 20260904163311 | 21 | 248 | 4.8 | 8.0 | 0.00 | 0.05 | 0.05 | 81 | 1014.4 |
| 20260904162230 | 21 | 270 | 8.0 | 12.9 | 0.00 | 0.05 | 0.05 | 81 | 1014.3 |
| 20260904161230 | 21 | 248 | 8.0 | 11.3 | 0.00 | 0.05 | 0.05 | 81 | 1014.1 |
| 20260904160220 | 21 | 293 | 8.0 | 14.5 | 0.00 | 0.05 | 0.05 | 81 | 1013.9 |
| 20260904155220 | 21 | 270 | 9.7 | 14.5 | 0.00 | 0.05 | 0.05 | 80 | 1013.9 |
| 20260904154230 | 22 | 248 | 8.0 | 12.9 | 0.00 | 0.05 | 0.05 | 79 | 1013.8 |
| 20260904153230 | 22 | 270 | 6.4 | 11.3 | 0.00 | 0.05 | 0.05 | 77 | 1013.9 |
| 20260904152230 | 22 | 248 | 4.8 | 6.4 | 0.00 | 0.05 | 0.05 | 77 | 1013.8 |
| 20260904151230 | 22 | 248 | 6.4 | 9.7 | 0.00 | 0.05 | 0.05 | 77 | 1013.8 |
| 20260904150230 | 22 | 270 | 6.4 | 16.1 | 0.00 | 0.05 | 0.05 | 77 | 1013.9 |
| 20260904145230 | 22 | 270 | 6.4 | 11.3 | 0.00 | 0.05 | 0.05 | 76 | 1013.8 |
| 20260904144220 | 22 | 248 | 9.7 | 29.0 | 0.00 | 0.05 | 0.05 | 76 | 1013.8 |
| 20260904143417 | 22 | 293 | 6.4 | 16.1 | 0.00 | 0.05 | 0.05 | 78 | 1013.8 |
| 20260904142239 | 21 | 248 | 4.8 | 6.4 | 0.00 | 0.05 | 0.05 | 79 | 1013.8 |
| 20260904141230 | 21 | 248 | 8.0 | 12.9 | 0.00 | 0.05 | 0.05 | 81 | 1013.8 |
| 20260904140240 | 21 | 248 | 4.8 | 8.0 | 0.00 | 0.05 | 0.05 | 81 | 1013.8 |
| 20260904135252 | 21 | 270 | 6.4 | 11.3 | 0.00 | 0.05 | 0.05 | 80 | 1013.8 |
| 20260904134220 | 22 | 270 | 9.7 | 16.1 | 0.00 | 0.05 | 0.05 | 77 | 1013.6 |
| 20260904133219 | 22 | 248 | 4.8 | 8.0 | 0.00 | 0.05 | 0.05 | 76 | 1013.3 |
| 20260904132254 | 22 | 270 | 4.8 | 11.3 | 0.00 | 0.05 | 0.05 | 77 | 1013.3 |
| 20260904131220 | 21 | 248 | 6.4 | 12.9 | 0.00 | 0.05 | 0.05 | 79 | 1013.2 |
| 20260904130241 | 21 | 248 | 1.6 | 4.8 | 0.00 | 0.05 | 0.05 | 80 | 1013.0 |
| 20260904125242 | 21 | 225 | 9.7 | 20.9 | 0.00 | 0.05 | 0.05 | 82 | 1012.6 |
| 20260904124241 | 21 | 248 | 6.4 | 12.9 | 0.00 | 0.05 | 0.05 | 83 | 1012.6 |
| 20260904123221 | 21 | 270 | 4.8 | 11.3 | 0.00 | 0.05 | 0.05 | 83 | 1012.9 |
| 20260904122221 | 21 | 270 | 6.4 | 11.3 | 0.00 | 0.05 | 0.05 | 83 | 1013.2 |
| 20260904121300 | 21 | 270 | 8.0 | 12.9 | 0.00 | 0.05 | 0.05 | 87 | 1013.1 |
| 20260904120431 | 21 | 248 | 8.0 | 16.1 | 0.00 | 0.05 | 0.05 | 89 | 1012.9 |
| 20260904120141 | 21 | 270 | 6.4 | 11.3 | 0.00 | 0.05 | 0.05 | 89 | 1012.8 |
| 20260904115313 | 21 | 270 | 8.0 | 11.3 | 0.00 | 0.05 | 0.05 | 88 | 1012.8 |
| 20260904115000 | 21 | 270 | 8.0 | 12.9 | 0.00 | 0.05 | 0.05 | 88 | 1012.8 |
| 20260904113919 | 21 | 248 | 8.0 | 12.9 | 0.00 | 0.05 | 0.05 | 87 | 1012.5 |
| 20260904113000 | 21 | 270 | 11.3 | 17.7 | 0.00 | 0.05 | 0.05 | 85 | 1012.4 |
| 20260904111930 | 21 | 270 | 9.7 | 17.7 | 0.00 | 0.05 | 0.05 | 86 | 1012.4 |
| 20260904110950 | 21 | 270 | 9.7 | 20.9 | 0.00 | 0.05 | 0.05 | 85 | 1012.4 |
| 20260904105959 | 21 | 248 | 14.5 | 22.5 | 0.00 | 0.05 | 0.05 | 85 | 1012.3 |
| 20260904104919 | 21 | 270 | 14.5 | 22.5 | 0.00 | 0.05 | 0.05 | 85 | 1012.5 |
| 20260904104133 | 21 | 270 | 11.3 | 14.5 | 0.00 | 0.05 | 0.05 | 85 | 1012.6 |
| 20260904103341 | 21 | 248 | 11.3 | 17.7 | 0.00 | 0.05 | 0.05 | 84 | 1012.4 |
| 20260904102330 | 21 | 270 | 8.0 | 14.5 | 0.00 | 0.05 | 0.05 | 84 | 1012.6 |
| 20260904101319 | 21 | 293 | 9.7 | 16.1 | 0.00 | 0.05 | 0.05 | 84 | 1012.5 |
| 20260904100319 | 21 | 270 | 11.3 | 14.5 | 0.00 | 0.05 | 0.05 | 84 | 1012.5 |
| 20260904095330 | 21 | 270 | 12.9 | 24.1 | 0.00 | 0.05 | 0.05 | 85 | 1012.6 |
| 20260904094319 | 21 | 225 | 9.7 | 19.3 | 0.00 | 0.05 | 0.05 | 85 | 1012.5 |
| 20260904093319 | 21 | 270 | 12.9 | 27.4 | 0.00 | 0.05 | 0.05 | 85 | 1012.5 |
| 20260904092339 | 22 | 270 | 11.3 | 22.5 | 0.00 | 0.05 | 0.05 | 85 | 1012.5 |
| 20260904091351 | 21 | 270 | 6.4 | 12.9 | 0.00 | 0.05 | 0.05 | 85 | 1012.3 |
| 20260904090319 | 21 | 270 | 9.7 | 16.1 | 0.00 | 0.05 | 0.05 | 85 | 1012.3 |
| 20260904085330 | 21 | 248 | 11.3 | 19.3 | 0.00 | 0.05 | 0.05 | 86 | 1012.2 |
| 20260904084319 | 21 | 270 | 9.7 | 16.1 | 0.00 | 0.05 | 0.05 | 87 | 1012.0 |
| 20260904083330 | 21 | 270 | 12.9 | 22.5 | 0.00 | 0.05 | 0.05 | 87 | 1011.9 |
| 20260904082339 | 21 | 270 | 8.0 | 14.5 | 0.00 | 0.05 | 0.05 | 88 | 1011.7 |
| 20260904081329 | 21 | 248 | 12.9 | 20.9 | 0.00 | 0.05 | 0.05 | 88 | 1011.9 |
| 20260904080319 | 21 | 225 | 11.3 | 22.5 | 0.00 | 0.05 | 0.05 | 89 | 1011.9 |
| 20260904075518 | 21 | 248 | 12.9 | 17.7 | 0.00 | 0.05 | 0.05 | 91 | 1012.0 |
| 20260904074749 | 20 | 270 | 9.7 | 16.1 | 0.00 | 0.05 | 0.05 | 91 | 1012.1 |
| 20260904073738 | 20 | 270 | 8.0 | 11.3 | 0.00 | 0.05 | 0.05 | 90 | 1012.3 |
| 20260904072749 | 20 | 248 | 11.3 | 17.7 | 0.00 | 0.05 | 0.05 | 89 | 1012.3 |
| 20260904071719 | 20 | 270 | 8.0 | 12.9 | 0.00 | 0.05 | 0.05 | 89 | 1012.4 |
| 20260904070719 | 21 | 270 | 11.3 | 16.1 | 0.00 | 0.05 | 0.05 | 88 | 1012.4 |
| 20260904065759 | 21 | 248 | 9.7 | 14.5 | 0.00 | 0.05 | 0.05 | 88 | 1012.2 |
| 20260904064739 | 20 | 248 | 9.7 | 17.7 | 0.00 | 0.05 | 0.05 | 89 | 1012.2 |
| 20260904063740 | 20 | 248 | 17.7 | 32.2 | 0.00 | 0.05 | 0.05 | 90 | 1012.1 |
| 20260904062718 | 20 | 225 | 14.5 | 29.0 | 0.00 | 0.05 | 0.05 | 90 | 1011.9 |
| 20260904061719 | 20 | 225 | 16.1 | 30.6 | 0.03 | 0.05 | 0.05 | 91 | 1011.8 |
| 20260904060740 | 20 | 270 | 12.9 | 27.4 | 0.03 | 0.05 | 0.05 | 92 | 1012.2 |
| 20260904055718 | 20 | 225 | 11.3 | 17.7 | 0.03 | 0.05 | 0.05 | 92 | 1012.2 |
| 20260904054729 | 20 | 225 | 14.5 | 24.1 | 0.03 | 0.05 | 0.05 | 92 | 1012.3 |
| 20260904053719 | 20 | 225 | 9.7 | 16.1 | 0.03 | 0.05 | 0.05 | 92 | 1012.3 |
| 20260904052740 | 20 | 225 | 11.3 | 22.5 | 0.05 | 0.05 | 0.05 | 92 | 1012.4 |
| 20260904051740 | 20 | 225 | 9.7 | 16.1 | 0.03 | 0.03 | 0.03 | 92 | 1012.5 |
| 20260904050800 | 20 | 270 | 6.4 | 12.9 | 0.03 | 0.03 | 0.03 | 91 | 1012.7 |
| 20260904045729 | 20 | 270 | 8.0 | 14.5 | 0.03 | 0.03 | 0.03 | 91 | 1013.0 |
| 20260904044729 | 20 | 225 | 3.2 | 9.7 | 0.03 | 0.03 | 0.03 | 92 | 1013.2 |
| 20260904043811 | 20 | 270 | 3.2 | 6.4 | 0.03 | 0.03 | 0.03 | 91 | 1013.3 |
| 20260904042740 | 20 | 248 | 4.8 | 9.7 | 0.00 | 0.00 | 0.00 | 91 | 1013.5 |
| 20260904041740 | 20 | 225 | 6.4 | 12.9 | 0.00 | 0.00 | 0.00 | 91 | 1013.4 |
| 20260904040718 | 20 | 270 | 4.8 | 6.4 | 0.00 | 0.00 | 0.00 | 91 | 1013.5 |
| 20260904035740 | 20 | 248 | 8.0 | 12.9 | 0.00 | 0.00 | 0.00 | 91 | 1013.5 |
| 20260904034718 | 20 | 248 | 9.7 | 12.9 | 0.00 | 0.00 | 0.00 | 91 | 1013.5 |
| 20260904033809 | 20 | 225 | 11.3 | 14.5 | 0.00 | 0.00 | 0.00 | 90 | 1013.6 |
| 20260904032729 | 20 | 270 | 9.7 | 14.5 | 0.00 | 0.00 | 0.00 | 90 | 1013.6 |
| 20260904031718 | 20 | 225 | 11.3 | 17.7 | 0.00 | 0.00 | 0.00 | 90 | 1013.6 |
| 20260904030729 | 20 | 225 | 11.3 | 29.0 | 0.00 | 0.00 | 0.00 | 90 | 1013.8 |
| 20260904025719 | 20 | 270 | 11.3 | 20.9 | 0.00 | 0.00 | 0.00 | 90 | 1014.1 |
| 20260904024718 | 20 | 248 | 8.0 | 12.9 | 0.00 | 0.00 | 0.00 | 90 | 1014.1 |
| 20260904023719 | 20 | 225 | 8.0 | 14.5 | 0.00 | 0.00 | 0.00 | 90 | 1014.2 |
| 20260904022718 | 20 | 270 | 8.0 | 16.1 | 0.00 | 0.00 | 0.00 | 90 | 1014.2 |
| 20260904021718 | 20 | 225 | 12.9 | 20.9 | 0.00 | 0.00 | 0.00 | 90 | 1014.3 |
| 20260904020718 | 20 | 225 | 11.3 | 17.7 | 0.00 | 0.00 | 0.00 | 90 | 1014.4 |
| 20260904015750 | 20 | 248 | 9.7 | 20.9 | 0.00 | 0.00 | 0.00 | 90 | 1014.4 |
| 20260904014750 | 20 | 248 | 8.0 | 19.3 | 0.00 | 0.00 | 0.00 | 90 | 1014.7 |
| 20260904013751 | 20 | 248 | 8.0 | 17.7 | 0.00 | 0.00 | 0.00 | 90 | 1014.8 |
| 20260904012752 | 20 | 248 | 8.0 | 14.5 | 0.00 | 0.00 | 0.00 | 90 | 1014.9 |
| 20260904011729 | 20 | 225 | 3.2 | 6.4 | 0.00 | 0.00 | 0.00 | 90 | 1015.0 |
| 20260904010718 | 20 | 270 | 4.8 | 6.4 | 0.00 | 0.00 | 0.00 | 89 | 1015.2 |
| 20260904005729 | 20 | 270 | 8.0 | 14.5 | 0.00 | 0.00 | 0.00 | 89 | 1015.3 |
| 20260904004701 | 20 | 248 | 8.0 | 9.7 | 0.00 | 0.00 | 0.00 | 89 | 1015.3 |
| 20260904003720 | 20 | 270 | 9.7 | 17.7 | 0.00 | 0.00 | 0.00 | 89 | 1015.5 |
| 20260904002720 | 20 | 248 | 8.0 | 11.3 | 0.00 | 0.00 | 0.00 | 89 | 1015.7 |
| 20260904001740 | 20 | 225 | 8.0 | 16.1 | 0.00 | 0.00 | 0.00 | 89 | 1015.7 |
| 20260904000742 | 20 | 248 | 8.0 | 14.5 | 0.00 | 0.00 | 0.00 | 89 | 1015.7 |
| 20260903235718 | 20 | 225 | 8.0 | 12.9 | 0.00 | 0.00 | 0.00 | 89 | 1015.7 |
| 20260903234740 | 20 | 248 | 8.0 | 12.9 | 0.00 | 0.00 | 0.00 | 89 | 1015.7 |
| 20260903233729 | 20 | 248 | 9.7 | 16.1 | 0.00 | 0.00 | 0.00 | 89 | 1015.8 |
| 20260903232718 | 20 | 248 | 8.0 | 11.3 | 0.00 | 0.00 | 0.00 | 89 | 1015.9 |
| 20260903231739 | 20 | 248 | 9.7 | 20.9 | 0.00 | 0.00 | 0.00 | 89 | 1016.0 |
| 20260903230718 | 20 | 248 | 9.7 | 17.7 | 0.00 | 0.00 | 0.00 | 90 | 1016.0 |
| 20260903225719 | 20 | 180 | 8.0 | 14.5 | 0.00 | 0.00 | 0.00 | 90 | 1016.1 |
| 20260903224718 | 20 | 270 | 4.8 | 9.7 | 0.00 | 0.00 | 0.00 | 90 | 1016.3 |
| 20260903223719 | 21 | 293 | 6.4 | 9.7 | 0.00 | 0.00 | 0.00 | 90 | 1016.4 |
| 20260903222719 | 21 | 248 | 4.8 | 6.4 | 0.00 | 0.00 | 0.00 | 89 | 1016.5 |
| 20260903221718 | 21 | 270 | 6.4 | 11.3 | 0.00 | 0.00 | 0.00 | 89 | 1016.6 |
| 20260903220729 | 21 | 225 | 9.7 | 14.5 | 0.00 | 0.00 | 0.00 | 89 | 1016.7 |
| 20260903215718 | 21 | 270 | 4.8 | 9.7 | 0.00 | 0.00 | 0.00 | 89 | 1016.6 |
| 20260903214718 | 21 | 248 | 6.4 | 12.9 | 0.00 | 0.00 | 0.00 | 89 | 1016.6 |
| 20260903213811 | 21 | 225 | 6.4 | 9.7 | 0.00 | 0.00 | 0.00 | 89 | 1016.7 |
| 20260903212718 | 21 | 270 | 4.8 | 9.7 | 0.00 | 0.00 | 0.00 | 89 | 1016.7 |
| 20260903211718 | 21 | 225 | 4.8 | 8.0 | 0.00 | 0.00 | 0.00 | 88 | 1016.6 |
| 20260903210718 | 21 | 248 | 11.3 | 17.7 | 0.00 | 0.00 | 0.00 | 89 | 1016.6 |
| 20260903205718 | 21 | 270 | 8.0 | 12.9 | 0.00 | 0.00 | 0.00 | 89 | 1016.9 |
| 20260903204729 | 21 | 248 | 9.7 | 19.3 | 0.00 | 0.00 | 0.00 | 89 | 1016.9 |
| 20260903203729 | 21 | 270 | 6.4 | 9.7 | 0.00 | 0.00 | 0.00 | 89 | 1017.0 |
| 20260903202752 | 21 | 248 | 11.3 | 19.3 | 0.00 | 0.00 | 0.00 | 89 | 1017.2 |
| 20260903201718 | 21 | 270 | 4.8 | 8.0 | 0.00 | 0.00 | 0.00 | 90 | 1017.4 |
| 20260903200802 | 21 | 225 | 12.9 | 22.5 | 0.00 | 0.00 | 0.00 | 90 | 1017.4 |
| 20260903195718 | 21 | 248 | 12.9 | 22.5 | 0.00 | 0.00 | 0.00 | 90 | 1017.4 |
| 20260903194720 | 21 | 248 | 9.7 | 14.5 | 0.00 | 0.00 | 0.00 | 90 | 1017.3 |
| 20260903193720 | 21 | 180 | 12.9 | 16.1 | 0.00 | 0.00 | 0.00 | 90 | 1017.2 |
| 20260903192720 | 21 | 248 | 12.9 | 20.9 | 0.00 | 0.00 | 0.00 | 89 | 1017.3 |
| 20260903191801 | 21 | 248 | 6.4 | 9.7 | 0.00 | 0.00 | 0.00 | 89 | 1017.3 |
| 20260903190720 | 21 | 203 | 8.0 | 17.7 | 0.00 | 0.00 | 0.00 | 89 | 1017.4 |
| 20260903185731 | 21 | 248 | 9.7 | 14.5 | 0.00 | 0.00 | 0.00 | 89 | 1017.4 |
| 20260903184729 | 21 | 248 | 11.3 | 19.3 | 0.00 | 0.00 | 0.00 | 88 | 1017.1 |
| 20260903183720 | 21 | 248 | 8.0 | 14.5 | 0.00 | 0.00 | 0.00 | 88 | 1017.1 |
| 20260903182742 | 21 | 248 | 6.4 | 12.9 | 0.00 | 0.00 | 0.00 | 88 | 1017.1 |
| 20260903181720 | 21 | 225 | 9.7 | 16.1 | 0.00 | 0.00 | 0.00 | 88 | 1017.0 |
| 20260903180720 | 21 | 248 | 12.9 | 25.7 | 0.00 | 0.00 | 0.00 | 88 | 1017.1 |
| 20260903175730 | 21 | 248 | 11.3 | 19.3 | 0.00 | 0.00 | 0.00 | 88 | 1017.3 |
| 20260903174730 | 21 | 203 | 8.0 | 12.9 | 0.00 | 0.00 | 0.00 | 88 | 1017.2 |
| 20260903173916 | 21 | 248 | 11.3 | 17.7 | 0.00 | 0.00 | 0.00 | 88 | 1017.5 |
| 20260903173320 | 21 | 248 | 14.5 | 19.3 | 0.00 | 0.00 | 0.00 | 88 | 1017.3 |